Time,TemperatureF,DewpointF,PressureIn,WindDirection,WindDirectionDegrees,WindSpeedMPH,WindSpeedGustMPH,Humidity,HourlyPrecipIn,Conditions,Clouds,dailyrainin,SoftwareType,DateUTC
2013-09-10 00:03:00,76.0,71.5,29.59,West,267,2.0,2.0,86,0.00,,,0.00,Wunderground v.1.15,2013-09-10 05:03:00,
2013-09-10 00:08:00,75.7,71.2,29.60,SW,215,1.0,2.0,86,0.00,,,0.00,Wunderground v.1.15,2013-09-10 05:08:00,
2013-09-10 00:13:00,75.5,71.0,29.60,West,260,1.0,2.0,86,0.00,,,0.00,Wunderground v.1.15,2013-09-10 05:13:00,
2013-09-10 00:18:00,75.4,70.9,29.60,West,266,2.0,2.0,86,0.00,,,0.00,Wunderground v.1.15,2013-09-10 05:18:00,
2013-09-10 00:23:00,75.3,70.8,29.61,West,276,2.0,4.0,86,0.00,,,0.00,Wunderground v.1.15,2013-09-10 05:23:00,
2013-09-10 00:28:00,75.2,70.7,29.61,West,262,2.0,4.0,86,0.00,,,0.00,Wunderground v.1.15,2013-09-10 05:28:00,
2013-09-10 00:33:00,75.0,70.5,29.61,WNW,282,3.0,8.0,86,0.00,,,0.00,Wunderground v.1.15,2013-09-10 05:33:00,
2013-09-10 00:39:00,74.8,70.3,29.61,WSW,248,3.0,8.0,86,0.00,,,0.00,Wunderground v.1.15,2013-09-10 05:39:00,
2013-09-10 00:44:00,74.7,70.2,29.62,WNW,285,3.0,4.0,86,0.00,,,0.00,Wunderground v.1.15,2013-09-10 05:44:00,
2013-09-10 00:49:00,74.6,70.1,29.62,West,262,3.0,4.0,86,0.00,,,0.00,Wunderground v.1.15,2013-09-10 05:49:00,
2013-09-10 00:54:00,74.4,69.9,29.61,West,273,3.0,3.0,86,0.00,,,0.00,Wunderground v.1.15,2013-09-10 05:54:00,
2013-09-10 00:59:00,74.3,69.8,29.61,WSW,257,3.0,4.0,86,0.00,,,0.00,Wunderground v.1.15,2013-09-10 05:59:00,
2013-09-10 01:05:00,74.2,69.7,29.61,West,269,3.0,3.0,86,0.00,,,0.00,Wunderground v.1.15,2013-09-10 06:05:00,
2013-09-10 01:10:00,74.0,69.9,29.61,West,274,2.0,3.0,87,0.00,,,0.00,Wunderground v.1.15,2013-09-10 06:10:00,
2013-09-10 01:15:00,73.9,69.8,29.61,West,264,2.0,4.0,87,0.00,,,0.00,Wunderground v.1.15,2013-09-10 06:15:00,
2013-09-10 01:20:00,73.7,69.2,29.62,WSW,253,3.0,4.0,86,0.00,,,0.00,Wunderground v.1.15,2013-09-10 06:20:00,
2013-09-10 01:25:00,73.5,69.1,29.62,West,264,3.0,4.0,86,0.00,,,0.00,Wunderground v.1.15,2013-09-10 06:25:00,
2013-09-10 01:31:00,73.2,68.8,29.63,West,271,3.0,4.0,86,0.00,,,0.00,Wunderground v.1.15,2013-09-10 06:31:00,
2013-09-10 01:36:00,73.1,68.7,29.62,WSW,249,3.0,4.0,86,0.00,,,0.00,Wunderground v.1.15,2013-09-10 06:36:00,
2013-09-10 01:41:00,72.9,68.1,29.63,West,262,2.0,3.0,85,0.00,,,0.00,Wunderground v.1.15,2013-09-10 06:41:00,
2013-09-10 01:46:00,72.8,68.0,29.64,WSW,257,2.0,3.0,85,0.00,,,0.00,Wunderground v.1.15,2013-09-10 06:46:00,
2013-09-10 01:51:00,72.6,67.8,29.64,West,260,2.0,4.0,85,0.00,,,0.00,Wunderground v.1.15,2013-09-10 06:51:00,
2013-09-10 01:57:00,72.5,67.7,29.64,West,269,3.0,4.0,85,0.00,,,0.00,Wunderground v.1.15,2013-09-10 06:57:00,
2013-09-10 02:02:00,72.4,67.3,29.64,West,276,3.0,3.0,84,0.00,,,0.00,Wunderground v.1.15,2013-09-10 07:02:00,
2013-09-10 02:07:00,72.3,67.5,29.63,WSW,243,2.0,3.0,85,0.00,,,0.00,Wunderground v.1.15,2013-09-10 07:07:00,
2013-09-10 02:12:00,72.2,67.4,29.63,West,266,1.0,1.0,85,0.00,,,0.00,Wunderground v.1.15,2013-09-10 07:12:00,
2013-09-10 02:17:00,72.0,67.2,29.64,West,277,1.0,2.0,85,0.00,,,0.00,Wunderground v.1.15,2013-09-10 07:17:00,
2013-09-10 02:23:00,72.0,67.2,29.64,West,274,2.0,3.0,85,0.00,,,0.00,Wunderground v.1.15,2013-09-10 07:23:00,
2013-09-10 02:28:00,71.8,67.0,29.65,West,266,2.0,3.0,85,0.00,,,0.00,Wunderground v.1.15,2013-09-10 07:28:00,
2013-09-10 02:33:00,71.8,67.4,29.65,WNW,290,2.0,3.0,86,0.00,,,0.00,Wunderground v.1.15,2013-09-10 07:33:00,
2013-09-10 02:38:00,71.6,67.2,29.65,West,266,2.0,3.0,86,0.00,,,0.00,Wunderground v.1.15,2013-09-10 07:38:00,
2013-09-10 02:43:00,71.6,67.2,29.65,West,266,2.0,5.0,86,0.00,,,0.00,Wunderground v.1.15,2013-09-10 07:43:00,
2013-09-10 02:49:00,71.4,67.0,29.66,West,263,2.0,5.0,86,0.00,,,0.00,Wunderground v.1.15,2013-09-10 07:49:00,
2013-09-10 02:54:00,71.2,67.1,29.66,West,275,2.0,2.0,87,0.00,,,0.00,Wunderground v.1.15,2013-09-10 07:54:00,
2013-09-10 02:59:00,71.1,67.0,29.66,West,275,1.0,3.0,87,0.00,,,0.00,Wunderground v.1.15,2013-09-10 07:59:00,
2013-09-10 03:04:00,71.0,66.9,29.66,WSW,257,2.0,2.0,87,0.00,,,0.00,Wunderground v.1.15,2013-09-10 08:04:00,
2013-09-10 03:09:00,70.9,66.8,29.66,West,266,2.0,2.0,87,0.00,,,0.00,Wunderground v.1.15,2013-09-10 08:09:00,
2013-09-10 03:14:00,70.7,66.6,29.66,West,268,2.0,2.0,87,0.00,,,0.00,Wunderground v.1.15,2013-09-10 08:14:00,
2013-09-10 03:19:00,70.6,66.5,29.66,West,266,2.0,2.0,87,0.00,,,0.00,Wunderground v.1.15,2013-09-10 08:19:00,
2013-09-10 03:25:00,70.5,66.4,29.66,West,271,1.0,2.0,87,0.00,,,0.00,Wunderground v.1.15,2013-09-10 08:25:00,
2013-09-10 03:30:00,70.3,66.6,29.66,West,269,1.0,1.0,88,0.00,,,0.00,Wunderground v.1.15,2013-09-10 08:30:00,
2013-09-10 03:35:00,70.2,66.5,29.66,West,277,2.0,2.0,88,0.00,,,0.00,Wunderground v.1.15,2013-09-10 08:35:00,
2013-09-10 03:40:00,70.1,66.4,29.66,West,262,2.0,2.0,88,0.00,,,0.00,Wunderground v.1.15,2013-09-10 08:40:00,
2013-09-10 03:45:00,70.1,66.7,29.66,West,273,1.0,2.0,89,0.00,,,0.00,Wunderground v.1.15,2013-09-10 08:45:00,
2013-09-10 03:50:00,70.0,66.6,29.65,West,268,1.0,1.0,89,0.00,,,0.00,Wunderground v.1.15,2013-09-10 08:50:00,
2013-09-10 03:55:00,69.9,66.5,29.66,West,267,1.0,1.0,89,0.00,,,0.00,Wunderground v.1.15,2013-09-10 08:55:00,
2013-09-10 04:00:00,69.8,66.4,29.66,West,267,1.0,1.0,89,0.00,,,0.00,Wunderground v.1.15,2013-09-10 09:00:00,
2013-09-10 04:05:00,69.7,66.3,29.66,West,266,0.0,1.0,89,0.00,,,0.00,Wunderground v.1.15,2013-09-10 09:05:00,
2013-09-10 04:11:00,69.5,66.1,29.66,West,276,1.0,2.0,89,0.00,,,0.00,Wunderground v.1.15,2013-09-10 09:11:00,
2013-09-10 04:16:00,69.3,66.2,29.66,West,269,2.0,3.0,90,0.00,,,0.00,Wunderground v.1.15,2013-09-10 09:16:00,
2013-09-10 04:21:00,69.3,66.2,29.67,West,262,2.0,2.0,90,0.00,,,0.00,Wunderground v.1.15,2013-09-10 09:21:00,
2013-09-10 04:26:00,69.3,66.2,29.67,West,274,2.0,3.0,90,0.00,,,0.00,Wunderground v.1.15,2013-09-10 09:26:00,
2013-09-10 04:31:00,69.2,66.1,29.67,West,274,2.0,2.0,90,0.00,,,0.00,Wunderground v.1.15,2013-09-10 09:31:00,
2013-09-10 04:37:00,69.1,66.0,29.67,West,260,2.0,2.0,90,0.00,,,0.00,Wunderground v.1.15,2013-09-10 09:37:00,
2013-09-10 04:42:00,69.0,65.9,29.67,West,278,2.0,3.0,90,0.00,,,0.00,Wunderground v.1.15,2013-09-10 09:42:00,
2013-09-10 04:47:00,68.9,65.8,29.67,WSW,255,2.0,3.0,90,0.00,,,0.00,Wunderground v.1.15,2013-09-10 09:47:00,
2013-09-10 04:52:00,68.8,66.1,29.67,WSW,257,2.0,3.0,91,0.00,,,0.00,Wunderground v.1.15,2013-09-10 09:52:00,
2013-09-10 04:57:00,68.7,66.0,29.67,West,271,2.0,3.0,91,0.00,,,0.00,Wunderground v.1.15,2013-09-10 09:57:00,
2013-09-10 05:03:00,68.5,65.8,29.67,West,269,1.0,1.0,91,0.00,,,0.00,Wunderground v.1.15,2013-09-10 10:03:00,
2013-09-10 05:08:00,68.3,65.6,29.67,West,270,1.0,1.0,91,0.00,,,0.00,Wunderground v.1.15,2013-09-10 10:08:00,
2013-09-10 05:13:00,68.1,65.4,29.67,West,270,0.0,1.0,91,0.00,,,0.00,Wunderground v.1.15,2013-09-10 10:13:00,
2013-09-10 05:18:00,68.0,65.3,29.67,West,270,0.0,1.0,91,0.00,,,0.00,Wunderground v.1.15,2013-09-10 10:18:00,
2013-09-10 05:23:00,67.9,65.2,29.68,West,271,0.0,1.0,91,0.00,,,0.00,Wunderground v.1.15,2013-09-10 10:23:00,
2013-09-10 05:29:00,67.6,65.2,29.68,West,269,1.0,2.0,92,0.00,,,0.00,Wunderground v.1.15,2013-09-10 10:29:00,
2013-09-10 05:34:00,67.5,65.1,29.68,West,274,2.0,2.0,92,0.00,,,0.00,Wunderground v.1.15,2013-09-10 10:34:00,
2013-09-10 05:39:00,67.4,65.0,29.68,West,269,2.0,2.0,92,0.00,,,0.00,Wunderground v.1.15,2013-09-10 10:39:00,
2013-09-10 05:44:00,67.3,64.9,29.68,West,277,1.0,2.0,92,0.00,,,0.00,Wunderground v.1.15,2013-09-10 10:44:00,
2013-09-10 05:49:00,67.3,64.9,29.68,West,277,0.0,2.0,92,0.00,,,0.00,Wunderground v.1.15,2013-09-10 10:49:00,
2013-09-10 05:55:00,67.1,64.7,29.68,West,277,0.0,1.0,92,0.00,,,0.00,Wunderground v.1.15,2013-09-10 10:55:00,
2013-09-10 06:00:00,67.0,64.6,29.68,West,277,1.0,1.0,92,0.00,,,0.00,Wunderground v.1.15,2013-09-10 11:00:00,
2013-09-10 06:05:00,66.8,64.4,29.68,West,276,1.0,1.0,92,0.00,,,0.00,Wunderground v.1.15,2013-09-10 11:05:00,
2013-09-10 06:10:00,66.8,64.4,29.68,West,275,0.0,1.0,92,0.00,,,0.00,Wunderground v.1.15,2013-09-10 11:10:00,
2013-09-10 06:15:00,66.8,64.4,29.68,West,276,0.0,1.0,92,0.00,,,0.00,Wunderground v.1.15,2013-09-10 11:15:00,
2013-09-10 06:21:00,66.6,64.2,29.69,West,275,0.0,1.0,92,0.00,,,0.00,Wunderground v.1.15,2013-09-10 11:21:00,
2013-09-10 06:26:00,66.4,64.0,29.69,West,271,1.0,2.0,92,0.00,,,0.00,Wunderground v.1.15,2013-09-10 11:26:00,
2013-09-10 06:31:00,66.3,63.9,29.70,West,277,1.0,2.0,92,0.00,,,0.00,Wunderground v.1.15,2013-09-10 11:31:00,
2013-09-10 06:36:00,66.4,64.3,29.70,West,271,1.0,2.0,93,0.00,,,0.00,Wunderground v.1.15,2013-09-10 11:36:00,
2013-09-10 06:41:00,66.4,64.3,29.71,West,275,2.0,2.0,93,0.00,,,0.00,Wunderground v.1.15,2013-09-10 11:41:00,
2013-09-10 06:47:00,66.6,64.5,29.72,West,263,2.0,4.0,93,0.00,,,0.00,Wunderground v.1.15,2013-09-10 11:47:00,
2013-09-10 06:52:00,66.7,64.6,29.73,West,264,3.0,4.0,93,0.00,,,0.00,Wunderground v.1.15,2013-09-10 11:52:00,
2013-09-10 06:57:00,66.8,64.7,29.72,West,263,3.0,4.0,93,0.00,,,0.00,Wunderground v.1.15,2013-09-10 11:57:00,
2013-09-10 07:02:00,66.9,64.8,29.72,West,274,3.0,3.0,93,0.00,,,0.00,Wunderground v.1.15,2013-09-10 12:02:00,
2013-09-10 07:07:00,67.0,64.9,29.72,West,268,3.0,5.0,93,0.00,,,0.00,Wunderground v.1.15,2013-09-10 12:07:00,
2013-09-10 07:13:00,66.9,64.8,29.72,West,280,2.0,3.0,93,0.00,,,0.00,Wunderground v.1.15,2013-09-10 12:13:00,
2013-09-10 07:18:00,66.9,64.8,29.72,West,267,2.0,3.0,93,0.00,,,0.00,Wunderground v.1.15,2013-09-10 12:18:00,
2013-09-10 07:23:00,66.9,64.8,29.72,West,264,1.0,2.0,93,0.00,,,0.00,Wunderground v.1.15,2013-09-10 12:23:00,
2013-09-10 07:28:00,66.8,64.7,29.72,West,268,1.0,2.0,93,0.00,,,0.00,Wunderground v.1.15,2013-09-10 12:28:00,
2013-09-10 07:33:00,66.7,64.6,29.72,West,266,1.0,1.0,93,0.00,,,0.00,Wunderground v.1.15,2013-09-10 12:33:00,
2013-09-10 07:39:00,66.7,64.6,29.71,West,266,0.0,1.0,93,0.00,,,0.00,Wunderground v.1.15,2013-09-10 12:39:00,
2013-09-10 07:44:00,66.7,64.6,29.71,West,266,0.0,1.0,93,0.00,,,0.00,Wunderground v.1.15,2013-09-10 12:44:00,
2013-09-10 07:49:00,66.6,64.5,29.72,West,266,0.0,1.0,93,0.00,,,0.00,Wunderground v.1.15,2013-09-10 12:49:00,
2013-09-10 07:54:00,66.6,64.5,29.71,West,266,0.0,1.0,93,0.00,,,0.00,Wunderground v.1.15,2013-09-10 12:54:00,
2013-09-10 07:59:00,66.7,64.6,29.71,West,266,0.0,1.0,93,0.00,,,0.00,Wunderground v.1.15,2013-09-10 12:59:00,
2013-09-10 08:05:00,66.8,64.7,29.70,West,266,0.0,1.0,93,0.00,,,0.00,Wunderground v.1.15,2013-09-10 13:05:00,
2013-09-10 08:10:00,66.9,64.8,29.71,West,266,0.0,1.0,93,0.00,,,0.00,Wunderground v.1.15,2013-09-10 13:10:00,
2013-09-10 08:15:00,67.1,64.7,29.71,West,266,0.0,1.0,92,0.00,,,0.00,Wunderground v.1.15,2013-09-10 13:15:00,
2013-09-10 08:20:00,67.4,65.0,29.71,West,266,0.0,1.0,92,0.00,,,0.00,Wunderground v.1.15,2013-09-10 13:20:00,
2013-09-10 08:25:00,67.6,65.5,29.71,West,266,0.0,1.0,93,0.00,,,0.00,Wunderground v.1.15,2013-09-10 13:25:00,
2013-09-10 08:30:00,67.9,65.8,29.71,West,266,0.0,1.0,93,0.00,,,0.00,Wunderground v.1.15,2013-09-10 13:30:00,
2013-09-10 08:35:00,68.1,66.0,29.71,West,260,0.0,1.0,93,0.00,,,0.00,Wunderground v.1.15,2013-09-10 13:35:00,
2013-09-10 08:40:00,68.3,66.2,29.70,West,260,0.0,1.0,93,0.00,,,0.00,Wunderground v.1.15,2013-09-10 13:40:00,
2013-09-10 08:45:00,68.6,66.2,29.70,West,262,0.0,1.0,92,0.00,,,0.00,Wunderground v.1.15,2013-09-10 13:45:00,
2013-09-10 08:50:00,68.9,66.5,29.71,West,264,0.0,1.0,92,0.00,,,0.00,Wunderground v.1.15,2013-09-10 13:50:00,
2013-09-10 08:56:00,69.3,66.9,29.72,West,281,1.0,2.0,92,0.00,,,0.00,Wunderground v.1.15,2013-09-10 13:56:00,
2013-09-10 09:01:00,69.6,67.2,29.72,West,281,1.0,1.0,92,0.00,,,0.00,Wunderground v.1.15,2013-09-10 14:01:00,
2013-09-10 09:06:00,69.9,67.2,29.72,West,281,0.0,1.0,91,0.00,,,0.00,Wunderground v.1.15,2013-09-10 14:06:00,
2013-09-10 09:11:00,70.2,67.4,29.72,WNW,293,0.0,1.0,91,0.00,,,0.00,Wunderground v.1.15,2013-09-10 14:11:00,
2013-09-10 09:16:00,70.4,67.3,29.72,West,276,0.0,1.0,90,0.00,,,0.00,Wunderground v.1.15,2013-09-10 14:16:00,
2013-09-10 09:21:00,70.7,67.6,29.72,West,276,0.0,1.0,90,0.00,,,0.00,Wunderground v.1.15,2013-09-10 14:21:00,
2013-09-10 09:27:00,71.0,67.9,29.72,West,278,0.0,1.0,90,0.00,,,0.00,Wunderground v.1.15,2013-09-10 14:27:00,
2013-09-10 09:32:00,71.3,67.9,29.72,West,262,0.0,1.0,89,0.00,,,0.00,Wunderground v.1.15,2013-09-10 14:32:00,
2013-09-10 09:37:00,71.6,67.9,29.72,West,262,0.0,1.0,88,0.00,,,0.00,Wunderground v.1.15,2013-09-10 14:37:00,
2013-09-10 09:42:00,71.8,68.1,29.72,West,262,0.0,1.0,88,0.00,,,0.00,Wunderground v.1.15,2013-09-10 14:42:00,
2013-09-10 09:47:00,72.1,68.0,29.72,West,262,0.0,1.0,87,0.00,,,0.00,Wunderground v.1.15,2013-09-10 14:47:00,
2013-09-10 09:53:00,72.2,67.4,29.73,West,280,0.0,1.0,85,0.00,,,0.00,Wunderground v.1.15,2013-09-10 14:53:00,
2013-09-10 09:58:00,72.2,67.4,29.73,West,280,0.0,1.0,85,0.00,,,0.00,Wunderground v.1.15,2013-09-10 14:58:00,
2013-09-10 10:03:00,72.3,67.9,29.73,West,277,0.0,1.0,86,0.00,,,0.00,Wunderground v.1.15,2013-09-10 15:03:00,
2013-09-10 10:08:00,72.4,68.0,29.73,West,278,0.0,1.0,86,0.00,,,0.00,Wunderground v.1.15,2013-09-10 15:08:00,
2013-09-10 10:13:00,72.5,67.7,29.73,West,271,0.0,1.0,85,0.00,,,0.00,Wunderground v.1.15,2013-09-10 15:13:00,
2013-09-10 10:19:00,72.6,67.1,29.74,West,260,0.0,1.0,83,0.00,,,0.00,Wunderground v.1.15,2013-09-10 15:19:00,
2013-09-10 10:24:00,72.8,67.7,29.74,WSW,250,1.0,1.0,84,0.00,,,0.00,Wunderground v.1.15,2013-09-10 15:24:00,
2013-09-10 10:29:00,73.4,67.9,29.74,NW,318,1.0,1.0,83,0.00,,,0.00,Wunderground v.1.15,2013-09-10 15:29:00,
2013-09-10 10:34:00,74.0,67.8,29.74,WSW,255,1.0,1.0,81,0.00,,,0.00,Wunderground v.1.15,2013-09-10 15:34:00,
2013-09-10 10:40:00,74.4,67.8,29.74,WSW,255,0.0,1.0,80,0.00,,,0.00,Wunderground v.1.15,2013-09-10 15:40:00,
2013-09-10 10:45:00,74.4,66.7,29.75,West,263,1.0,4.0,77,0.00,,,0.00,Wunderground v.1.15,2013-09-10 15:45:00,
2013-09-10 10:50:00,74.4,66.7,29.75,WSW,251,1.0,2.0,77,0.00,,,0.00,Wunderground v.1.15,2013-09-10 15:50:00,
2013-09-10 10:55:00,74.6,66.9,29.75,West,266,1.0,3.0,77,0.00,,,0.00,Wunderground v.1.15,2013-09-10 15:55:00,
2013-09-10 11:00:00,74.9,67.2,29.75,West,275,2.0,2.0,77,0.00,,,0.00,Wunderground v.1.15,2013-09-10 16:00:00,
2013-09-10 11:05:00,74.9,66.8,29.75,West,264,3.0,4.0,76,0.00,,,0.00,Wunderground v.1.15,2013-09-10 16:05:00,
2013-09-10 11:11:00,75.0,67.3,29.75,West,273,3.0,3.0,77,0.00,,,0.00,Wunderground v.1.15,2013-09-10 16:11:00,
2013-09-10 11:16:00,75.3,67.2,29.75,West,260,3.0,3.0,76,0.00,,,0.00,Wunderground v.1.15,2013-09-10 16:16:00,
2013-09-10 11:21:00,75.2,67.1,29.75,West,264,2.0,3.0,76,0.00,,,0.00,Wunderground v.1.15,2013-09-10 16:21:00,
2013-09-10 11:27:00,74.8,66.3,29.75,West,271,2.0,4.0,75,0.00,,,0.00,Wunderground v.1.15,2013-09-10 16:27:00,
2013-09-10 11:33:00,74.8,67.1,29.75,West,271,2.0,2.0,77,0.00,,,0.00,Wunderground v.1.15,2013-09-10 16:33:00,
2013-09-10 11:38:00,74.8,67.5,29.76,West,262,2.0,4.0,78,0.00,,,0.00,Wunderground v.1.15,2013-09-10 16:38:00,
2013-09-10 11:43:00,74.7,66.6,29.76,West,269,2.0,4.0,76,0.00,,,0.00,Wunderground v.1.15,2013-09-10 16:43:00,
2013-09-10 11:48:00,74.4,66.7,29.75,WSW,255,2.0,4.0,77,0.00,,,0.00,Wunderground v.1.15,2013-09-10 16:48:00,
2013-09-10 11:53:00,74.2,66.5,29.75,West,271,2.0,2.0,77,0.00,,,0.00,Wunderground v.1.15,2013-09-10 16:53:00,
2013-09-10 11:58:00,74.0,66.3,29.76,WNW,287,1.0,3.0,77,0.00,,,0.00,Wunderground v.1.15,2013-09-10 16:58:00,
2013-09-10 12:03:00,73.7,66.4,29.76,WSW,248,2.0,3.0,78,0.00,,,0.00,Wunderground v.1.15,2013-09-10 17:03:00,
2013-09-10 12:08:00,73.5,66.9,29.76,West,270,2.0,3.0,80,0.00,,,0.00,Wunderground v.1.15,2013-09-10 17:08:00,
2013-09-10 12:13:00,73.2,67.4,29.76,West,266,1.0,2.0,82,0.00,,,0.00,Wunderground v.1.15,2013-09-10 17:13:00,
2013-09-10 12:18:00,73.2,67.4,29.76,West,266,1.0,2.0,82,0.00,,,0.00,Wunderground v.1.15,2013-09-10 17:18:00,
2013-09-10 12:23:00,73.5,68.0,29.76,West,266,1.0,1.0,83,0.00,,,0.00,Wunderground v.1.15,2013-09-10 17:23:00,
2013-09-10 12:29:00,73.8,68.7,29.75,SSW,200,0.0,1.0,84,0.00,,,0.00,Wunderground v.1.15,2013-09-10 17:29:00,
2013-09-10 12:34:00,74.2,68.3,29.75,SSE,160,0.0,1.0,82,0.00,,,0.00,Wunderground v.1.15,2013-09-10 17:34:00,
2013-09-10 12:39:00,74.8,68.9,29.75,SSE,165,0.0,1.0,82,0.00,,,0.00,Wunderground v.1.15,2013-09-10 17:39:00,
2013-09-10 12:44:00,75.4,68.1,29.75,WNW,287,0.0,1.0,78,0.00,,,0.00,Wunderground v.1.15,2013-09-10 17:44:00,
2013-09-10 12:49:00,75.7,67.2,29.75,WSW,256,1.0,2.0,75,0.00,,,0.00,Wunderground v.1.15,2013-09-10 17:49:00,
2013-09-10 12:55:00,76.2,67.3,29.75,West,269,1.0,2.0,74,0.00,,,0.00,Wunderground v.1.15,2013-09-10 17:55:00,
2013-09-10 13:00:00,76.5,67.2,29.76,WSW,250,1.0,1.0,73,0.00,,,0.00,Wunderground v.1.15,2013-09-10 18:00:00,
2013-09-10 13:05:00,77.4,68.1,29.76,West,263,1.0,3.0,73,0.00,,,0.00,Wunderground v.1.15,2013-09-10 18:05:00,
2013-09-10 13:10:00,78.3,68.1,29.76,West,273,2.0,4.0,71,0.00,,,0.00,Wunderground v.1.15,2013-09-10 18:10:00,
2013-09-10 13:15:00,78.8,66.9,29.76,WSW,256,3.0,7.0,67,0.00,,,0.00,Wunderground v.1.15,2013-09-10 18:15:00,
2013-09-10 13:21:00,78.5,66.6,29.76,West,262,3.0,4.0,67,0.00,,,0.00,Wunderground v.1.15,2013-09-10 18:21:00,
2013-09-10 13:26:00,78.6,67.2,29.76,West,267,3.0,4.0,68,0.00,,,0.00,Wunderground v.1.15,2013-09-10 18:26:00,
2013-09-10 13:31:00,78.8,67.3,29.75,West,274,2.0,4.0,68,0.00,,,0.00,Wunderground v.1.15,2013-09-10 18:31:00,
2013-09-10 13:36:00,78.9,69.1,29.75,WSW,248,2.0,4.0,72,0.00,,,0.00,Wunderground v.1.15,2013-09-10 18:36:00,
2013-09-10 13:41:00,78.5,66.6,29.76,West,278,3.0,4.0,67,0.00,,,0.00,Wunderground v.1.15,2013-09-10 18:41:00,
2013-09-10 13:47:00,78.3,66.4,29.76,West,274,3.0,6.0,67,0.00,,,0.00,Wunderground v.1.15,2013-09-10 18:47:00,
2013-09-10 13:52:00,78.6,66.7,29.76,WSW,256,4.0,4.0,67,0.00,,,0.00,Wunderground v.1.15,2013-09-10 18:52:00,
2013-09-10 13:57:00,79.0,67.1,29.76,West,281,3.0,4.0,67,0.00,,,0.00,Wunderground v.1.15,2013-09-10 18:57:00,
2013-09-10 14:02:00,79.6,67.7,29.76,WNW,284,2.0,3.0,67,0.00,,,0.00,Wunderground v.1.15,2013-09-10 19:02:00,
2013-09-10 14:07:00,80.0,67.6,29.75,WSW,245,3.0,3.0,66,0.00,,,0.00,Wunderground v.1.15,2013-09-10 19:07:00,
2013-09-10 14:13:00,80.3,67.0,29.75,West,268,2.0,3.0,64,0.00,,,0.00,Wunderground v.1.15,2013-09-10 19:13:00,
2013-09-10 14:18:00,79.9,66.2,29.75,West,264,3.0,5.0,63,0.00,,,0.00,Wunderground v.1.15,2013-09-10 19:18:00,
2013-09-10 14:23:00,79.6,65.4,29.75,West,276,3.0,5.0,62,0.00,,,0.00,Wunderground v.1.15,2013-09-10 19:23:00,
2013-09-10 14:28:00,79.3,66.1,29.75,West,281,4.0,7.0,64,0.00,,,0.00,Wunderground v.1.15,2013-09-10 19:28:00,
2013-09-10 14:33:00,79.2,66.0,29.75,WSW,238,3.0,6.0,64,0.00,,,0.00,Wunderground v.1.15,2013-09-10 19:33:00,
2013-09-10 14:39:00,78.8,65.6,29.75,WSW,256,3.0,6.0,64,0.00,,,0.00,Wunderground v.1.15,2013-09-10 19:39:00,
2013-09-10 14:44:00,78.5,65.8,29.75,West,264,3.0,7.0,65,0.00,,,0.00,Wunderground v.1.15,2013-09-10 19:44:00,
2013-09-10 14:49:00,78.3,65.6,29.75,West,273,3.0,7.0,65,0.00,,,0.00,Wunderground v.1.15,2013-09-10 19:49:00,
2013-09-10 14:54:00,78.1,64.9,29.75,West,281,3.0,7.0,64,0.00,,,0.00,Wunderground v.1.15,2013-09-10 19:54:00,
2013-09-10 14:59:00,77.9,65.6,29.75,West,262,3.0,7.0,66,0.00,,,0.00,Wunderground v.1.15,2013-09-10 19:59:00,
2013-09-10 15:04:00,77.6,65.3,29.75,West,262,3.0,4.0,66,0.00,,,0.00,Wunderground v.1.15,2013-09-10 20:04:00,
2013-09-10 15:09:00,77.3,65.5,29.75,West,280,2.0,2.0,67,0.00,,,0.00,Wunderground v.1.15,2013-09-10 20:09:00,
2013-09-10 15:14:00,77.2,66.2,29.75,West,262,2.0,2.0,69,0.00,,,0.00,Wunderground v.1.15,2013-09-10 20:14:00,
2013-09-10 15:19:00,77.0,66.9,29.75,West,262,1.0,1.0,71,0.00,,,0.00,Wunderground v.1.15,2013-09-10 20:19:00,
2013-09-10 15:25:00,76.9,66.4,29.75,West,262,0.0,1.0,70,0.00,,,0.00,Wunderground v.1.15,2013-09-10 20:25:00,
2013-09-10 15:30:00,76.8,66.7,29.75,West,262,0.0,1.0,71,0.00,,,0.00,Wunderground v.1.15,2013-09-10 20:30:00,
2013-09-10 15:35:00,76.6,66.1,29.75,West,262,0.0,1.0,70,0.00,,,0.00,Wunderground v.1.15,2013-09-10 20:35:00,
2013-09-10 15:40:00,76.4,66.3,29.75,West,262,1.0,1.0,71,0.00,,,0.00,Wunderground v.1.15,2013-09-10 20:40:00,
2013-09-10 15:45:00,76.1,66.0,29.75,West,266,1.0,2.0,71,0.00,,,0.00,Wunderground v.1.15,2013-09-10 20:45:00,
2013-09-10 15:50:00,75.9,66.6,29.75,West,269,1.0,1.0,73,0.00,,,0.00,Wunderground v.1.15,2013-09-10 20:50:00,
2013-09-10 15:55:00,75.9,66.2,29.75,West,268,1.0,1.0,72,0.00,,,0.00,Wunderground v.1.15,2013-09-10 20:55:00,
2013-09-10 16:01:00,76.1,66.0,29.75,West,269,1.0,1.0,71,0.00,,,0.00,Wunderground v.1.15,2013-09-10 21:01:00,
2013-09-10 16:06:00,76.2,66.5,29.75,West,268,0.0,1.0,72,0.00,,,0.00,Wunderground v.1.15,2013-09-10 21:06:00,
2013-09-10 16:11:00,76.3,66.6,29.75,West,269,0.0,1.0,72,0.00,,,0.00,Wunderground v.1.15,2013-09-10 21:11:00,
2013-09-10 16:16:00,76.4,66.3,29.75,West,260,1.0,2.0,71,0.00,,,0.00,Wunderground v.1.15,2013-09-10 21:16:00,
2013-09-10 16:21:00,76.4,66.7,29.75,West,260,1.0,1.0,72,0.00,,,0.00,Wunderground v.1.15,2013-09-10 21:21:00,
2013-09-10 16:27:00,76.6,65.7,29.75,West,270,1.0,2.0,69,0.00,,,0.00,Wunderground v.1.15,2013-09-10 21:27:00,
2013-09-10 16:32:00,76.9,66.0,29.75,West,281,1.0,2.0,69,0.00,,,0.00,Wunderground v.1.15,2013-09-10 21:32:00,
2013-09-10 16:37:00,77.1,65.3,29.75,WSW,246,1.0,2.0,67,0.00,,,0.00,Wunderground v.1.15,2013-09-10 21:37:00,
2013-09-10 16:42:00,77.2,65.4,29.75,WSW,250,2.0,3.0,67,0.00,,,0.00,Wunderground v.1.15,2013-09-10 21:42:00,
2013-09-10 16:47:00,77.3,65.9,29.75,WSW,249,2.0,3.0,68,0.00,,,0.00,Wunderground v.1.15,2013-09-10 21:47:00,
2013-09-10 16:53:00,77.4,65.6,29.75,West,262,1.0,1.0,67,0.00,,,0.00,Wunderground v.1.15,2013-09-10 21:53:00,
2013-09-10 16:58:00,77.7,65.9,29.75,West,264,1.0,1.0,67,0.00,,,0.00,Wunderground v.1.15,2013-09-10 21:58:00,
2013-09-10 17:03:00,78.0,66.6,29.75,SW,236,1.0,2.0,68,0.00,,,0.00,Wunderground v.1.15,2013-09-10 22:03:00,
2013-09-10 17:08:00,78.2,66.3,29.75,WSW,253,1.0,2.0,67,0.00,,,0.00,Wunderground v.1.15,2013-09-10 22:08:00,
2013-09-10 17:13:00,78.5,67.1,29.75,West,263,1.0,1.0,68,0.00,,,0.00,Wunderground v.1.15,2013-09-10 22:13:00,
2013-09-10 17:19:00,78.6,66.3,29.75,West,264,0.0,1.0,66,0.00,,,0.00,Wunderground v.1.15,2013-09-10 22:19:00,
2013-09-10 17:24:00,78.5,67.1,29.75,West,262,0.0,1.0,68,0.00,,,0.00,Wunderground v.1.15,2013-09-10 22:24:00,
2013-09-10 17:29:00,78.4,67.0,29.75,West,267,0.0,2.0,68,0.00,,,0.00,Wunderground v.1.15,2013-09-10 22:29:00,
2013-09-10 17:34:00,78.3,66.9,29.75,West,260,0.0,1.0,68,0.00,,,0.00,Wunderground v.1.15,2013-09-10 22:34:00,
2013-09-10 17:39:00,78.1,67.1,29.75,West,269,0.0,1.0,69,0.00,,,0.00,Wunderground v.1.15,2013-09-10 22:39:00,
2013-09-10 17:45:00,78.8,68.6,29.75,West,270,0.0,1.0,71,0.00,,,0.00,Wunderground v.1.15,2013-09-10 22:45:00,
2013-09-10 17:50:00,79.8,69.1,29.75,NW,322,0.0,1.0,70,0.00,,,0.00,Wunderground v.1.15,2013-09-10 22:50:00,
2013-09-10 17:55:00,80.8,67.0,29.75,West,270,0.0,1.0,63,0.00,,,0.00,Wunderground v.1.15,2013-09-10 22:55:00,
2013-09-10 18:00:00,80.9,67.1,29.75,SW,226,0.0,1.0,63,0.00,,,0.00,Wunderground v.1.15,2013-09-10 23:00:00,
2013-09-10 18:05:00,80.6,66.8,29.75,WSW,256,1.0,1.0,63,0.00,,,0.00,Wunderground v.1.15,2013-09-10 23:05:00,
2013-09-10 18:11:00,80.8,67.9,29.75,WSW,256,0.0,1.0,65,0.00,,,0.00,Wunderground v.1.15,2013-09-10 23:11:00,
2013-09-10 18:16:00,81.2,67.4,29.75,WSW,255,0.0,1.0,63,0.00,,,0.00,Wunderground v.1.15,2013-09-10 23:16:00,
2013-09-10 18:21:00,81.6,68.2,29.75,WSW,256,0.0,1.0,64,0.00,,,0.00,Wunderground v.1.15,2013-09-10 23:21:00,
2013-09-10 18:26:00,81.2,67.9,29.75,WSW,256,0.0,1.0,64,0.00,,,0.00,Wunderground v.1.15,2013-09-10 23:26:00,
2013-09-10 18:31:00,80.6,67.7,29.75,WSW,256,0.0,1.0,65,0.00,,,0.00,Wunderground v.1.15,2013-09-10 23:31:00,
2013-09-10 18:36:00,79.8,67.9,29.75,WSW,255,0.0,1.0,67,0.00,,,0.00,Wunderground v.1.15,2013-09-10 23:36:00,
2013-09-10 18:41:00,79.4,67.9,29.75,WSW,255,0.0,1.0,68,0.00,,,0.00,Wunderground v.1.15,2013-09-10 23:41:00,
2013-09-10 18:46:00,79.1,68.1,29.76,WSW,256,0.0,1.0,69,0.00,,,0.00,Wunderground v.1.15,2013-09-10 23:46:00,
2013-09-10 18:51:00,79.1,68.5,29.75,WSW,255,0.0,1.0,70,0.00,,,0.00,Wunderground v.1.15,2013-09-10 23:51:00,
2013-09-10 18:56:00,78.8,68.2,29.76,WSW,255,0.0,1.0,70,0.00,,,0.00,Wunderground v.1.15,2013-09-10 23:56:00,
2013-09-10 19:02:00,78.1,68.3,29.76,WSW,256,0.0,1.0,72,0.00,,,0.00,Wunderground v.1.15,2013-09-11 00:02:00,
2013-09-10 19:07:00,77.3,68.0,29.76,WSW,255,0.0,1.0,73,0.00,,,0.00,Wunderground v.1.15,2013-09-11 00:07:00,
2013-09-10 19:12:00,76.5,67.6,29.76,WSW,255,0.0,1.0,74,0.00,,,0.00,Wunderground v.1.15,2013-09-11 00:12:00,
2013-09-10 19:17:00,75.8,67.7,29.76,WSW,256,0.0,1.0,76,0.00,,,0.00,Wunderground v.1.15,2013-09-11 00:17:00,
2013-09-10 19:22:00,75.1,67.8,29.76,WSW,256,0.0,1.0,78,0.00,,,0.00,Wunderground v.1.15,2013-09-11 00:22:00,
2013-09-10 19:28:00,74.5,67.2,29.76,WSW,256,0.0,1.0,78,0.00,,,0.00,Wunderground v.1.15,2013-09-11 00:28:00,
2013-09-10 19:33:00,73.8,66.9,29.76,WSW,255,0.0,1.0,79,0.00,,,0.00,Wunderground v.1.15,2013-09-11 00:33:00,
2013-09-10 19:38:00,73.3,66.8,29.76,WSW,256,0.0,1.0,80,0.00,,,0.00,Wunderground v.1.15,2013-09-11 00:38:00,
2013-09-10 19:43:00,72.9,66.7,29.76,WSW,255,0.0,1.0,81,0.00,,,0.00,Wunderground v.1.15,2013-09-11 00:43:00,
2013-09-10 19:48:00,72.5,66.7,29.76,WSW,255,0.0,1.0,82,0.00,,,0.00,Wunderground v.1.15,2013-09-11 00:48:00,
2013-09-10 19:53:00,72.2,66.7,29.77,WSW,256,0.0,1.0,83,0.00,,,0.00,Wunderground v.1.15,2013-09-11 00:53:00,
2013-09-10 19:59:00,71.9,66.5,29.77,WSW,255,0.0,1.0,83,0.00,,,0.00,Wunderground v.1.15,2013-09-11 00:59:00,
2013-09-10 20:04:00,71.7,66.3,29.77,WSW,255,0.0,1.0,83,0.00,,,0.00,Wunderground v.1.15,2013-09-11 01:04:00,
2013-09-10 20:09:00,71.5,66.4,29.77,WSW,256,0.0,1.0,84,0.00,,,0.00,Wunderground v.1.15,2013-09-11 01:09:00,
2013-09-10 20:14:00,71.2,66.1,29.78,WSW,255,0.0,1.0,84,0.00,,,0.00,Wunderground v.1.15,2013-09-11 01:14:00,
2013-09-10 20:20:00,70.9,66.2,29.78,WSW,256,0.0,1.0,85,0.00,,,0.00,Wunderground v.1.15,2013-09-11 01:20:00,
2013-09-10 20:25:00,70.8,66.1,29.78,WSW,256,0.0,1.0,85,0.00,,,0.00,Wunderground v.1.15,2013-09-11 01:25:00,
2013-09-10 20:30:00,70.6,66.2,29.78,WSW,256,0.0,1.0,86,0.00,,,0.00,Wunderground v.1.15,2013-09-11 01:30:00,
2013-09-10 20:35:00,70.5,66.1,29.78,WSW,255,0.0,1.0,86,0.00,,,0.00,Wunderground v.1.15,2013-09-11 01:35:00,
2013-09-10 20:40:00,70.5,66.1,29.78,West,262,1.0,1.0,86,0.00,,,0.00,Wunderground v.1.15,2013-09-11 01:40:00,
2013-09-10 20:45:00,70.6,65.9,29.78,West,263,1.0,1.0,85,0.00,,,0.00,Wunderground v.1.15,2013-09-11 01:45:00,
2013-09-10 20:50:00,70.8,66.1,29.78,West,268,1.0,1.0,85,0.00,,,0.00,Wunderground v.1.15,2013-09-11 01:50:00,
2013-09-10 20:55:00,70.9,66.2,29.78,West,268,1.0,1.0,85,0.00,,,0.00,Wunderground v.1.15,2013-09-11 01:55:00,
2013-09-10 21:00:00,71.0,65.9,29.79,West,269,1.0,1.0,84,0.00,,,0.00,Wunderground v.1.15,2013-09-11 02:00:00,
2013-09-10 21:05:00,71.0,65.9,29.79,West,268,0.0,1.0,84,0.00,,,0.00,Wunderground v.1.15,2013-09-11 02:05:00,
2013-09-10 21:10:00,70.9,66.2,29.79,West,269,0.0,1.0,85,0.00,,,0.00,Wunderground v.1.15,2013-09-11 02:10:00,
2013-09-10 21:15:00,70.8,66.1,29.79,West,269,0.0,1.0,85,0.00,,,0.00,Wunderground v.1.15,2013-09-11 02:15:00,
2013-09-10 21:20:00,70.7,66.0,29.79,West,268,0.0,1.0,85,0.00,,,0.00,Wunderground v.1.15,2013-09-11 02:20:00,
2013-09-10 21:26:00,70.5,66.1,29.79,West,269,0.0,1.0,86,0.00,,,0.00,Wunderground v.1.15,2013-09-11 02:26:00,
2013-09-10 21:31:00,70.4,66.0,29.79,West,270,0.0,1.0,86,0.00,,,0.00,Wunderground v.1.15,2013-09-11 02:31:00,
2013-09-10 21:36:00,70.4,66.0,29.79,West,269,1.0,1.0,86,0.00,,,0.00,Wunderground v.1.15,2013-09-11 02:36:00,
2013-09-10 21:41:00,70.4,66.0,29.80,West,266,1.0,2.0,86,0.00,,,0.00,Wunderground v.1.15,2013-09-11 02:41:00,
2013-09-10 21:46:00,70.5,66.1,29.80,West,266,1.0,2.0,86,0.00,,,0.00,Wunderground v.1.15,2013-09-11 02:46:00,
2013-09-10 21:52:00,70.6,66.2,29.80,West,266,1.0,1.0,86,0.00,,,0.00,Wunderground v.1.15,2013-09-11 02:52:00,
2013-09-10 21:57:00,70.7,66.0,29.80,West,277,1.0,2.0,85,0.00,,,0.00,Wunderground v.1.15,2013-09-11 02:57:00,
2013-09-10 22:02:00,71.1,66.4,29.80,West,268,2.0,2.0,85,0.00,,,0.00,Wunderground v.1.15,2013-09-11 03:02:00,
2013-09-10 22:07:00,71.2,66.5,29.81,West,259,2.0,2.0,85,0.00,,,0.00,Wunderground v.1.15,2013-09-11 03:07:00,
2013-09-10 22:12:00,71.3,66.2,29.81,West,266,1.0,3.0,84,0.00,,,0.00,Wunderground v.1.15,2013-09-11 03:12:00,
2013-09-10 22:17:00,71.3,66.2,29.81,West,274,1.0,3.0,84,0.00,,,0.00,Wunderground v.1.15,2013-09-11 03:17:00,
2013-09-10 22:22:00,71.2,66.1,29.81,West,269,1.0,1.0,84,0.00,,,0.00,Wunderground v.1.15,2013-09-11 03:22:00,
2013-09-10 22:27:00,71.1,66.4,29.82,West,264,0.0,1.0,85,0.00,,,0.00,Wunderground v.1.15,2013-09-11 03:27:00,
2013-09-10 22:32:00,71.0,66.3,29.82,West,264,0.0,1.0,85,0.00,,,0.00,Wunderground v.1.15,2013-09-11 03:32:00,
2013-09-10 22:37:00,70.9,66.5,29.81,West,264,0.0,1.0,86,0.00,,,0.00,Wunderground v.1.15,2013-09-11 03:37:00,
2013-09-10 22:43:00,70.6,66.2,29.82,West,264,0.0,1.0,86,0.00,,,0.00,Wunderground v.1.15,2013-09-11 03:43:00,
2013-09-10 22:48:00,70.4,66.0,29.82,West,264,0.0,1.0,86,0.00,,,0.00,Wunderground v.1.15,2013-09-11 03:48:00,
2013-09-10 22:53:00,70.2,65.8,29.82,West,264,0.0,1.0,86,0.00,,,0.00,Wunderground v.1.15,2013-09-11 03:53:00,
2013-09-10 22:58:00,70.1,66.0,29.82,West,264,0.0,1.0,87,0.00,,,0.00,Wunderground v.1.15,2013-09-11 03:58:00,
2013-09-10 23:01:00,70.0,65.6,29.82,West,264,0.0,1.0,86,0.00,,,0.00,Wunderground v.1.15,2013-09-11 04:01:00,
2013-09-10 23:02:00,69.9,65.5,29.82,West,264,0.0,1.0,86,0.00,,,0.00,Wunderground v.1.15,2013-09-11 04:02:00,
2013-09-10 23:03:00,69.9,65.5,29.82,West,264,0.0,1.0,86,0.00,,,0.00,Wunderground v.1.15,2013-09-11 04:03:00,
2013-09-10 23:08:00,69.8,65.8,29.82,West,264,0.0,1.0,87,0.00,,,0.00,Wunderground v.1.15,2013-09-11 04:08:00,
2013-09-10 23:09:00,69.8,65.8,29.82,West,264,0.0,1.0,87,0.00,,,0.00,Wunderground v.1.15,2013-09-11 04:09:00,
2013-09-10 23:14:00,69.7,65.7,29.82,West,264,0.0,1.0,87,0.00,,,0.00,Wunderground v.1.15,2013-09-11 04:14:00,
2013-09-10 23:19:00,69.7,65.7,29.82,West,264,0.0,1.0,87,0.00,,,0.00,Wunderground v.1.15,2013-09-11 04:19:00,
2013-09-10 23:21:00,69.6,65.6,29.82,West,264,0.0,1.0,87,0.00,,,0.00,Wunderground v.1.15,2013-09-11 04:21:00,
2013-09-10 23:27:00,69.5,65.5,29.82,West,264,0.0,1.0,87,0.00,,,0.00,Wunderground v.1.15,2013-09-11 04:27:00,
2013-09-10 23:32:00,69.4,65.4,29.82,West,264,0.0,1.0,87,0.00,,,0.00,Wunderground v.1.15,2013-09-11 04:32:00,
2013-09-10 23:37:00,69.3,65.3,29.82,West,264,0.0,1.0,87,0.00,,,0.00,Wunderground v.1.15,2013-09-11 04:37:00,
2013-09-10 23:43:00,69.1,65.1,29.82,West,264,0.0,1.0,87,0.00,,,0.00,Wunderground v.1.15,2013-09-11 04:43:00,
2013-09-10 23:48:00,68.9,65.2,29.82,West,264,0.0,1.0,88,0.00,,,0.00,Wunderground v.1.15,2013-09-11 04:48:00,
2013-09-10 23:53:00,68.5,64.8,29.83,West,264,0.0,1.0,88,0.00,,,0.00,Wunderground v.1.15,2013-09-11 04:53:00,
2013-09-10 23:58:00,68.3,64.9,29.83,West,264,0.0,1.0,89,0.00,,,0.00,Wunderground v.1.15,2013-09-11 04:58:00,